Year,Month,Day,Hour,Minute,Value (Times are PST for temperature in C)
2010,08,19,00,00,12.10
2010,08,19,00,01,12.10
2010,08,19,00,02,12.10
2010,08,19,00,03,12.10
2010,08,19,00,04,12.10
2010,08,19,00,05,12.10
2010,08,19,00,06,12.10
2010,08,19,00,07,12.10
2010,08,19,00,08,12.10
2010,08,19,00,09,12.10
2010,08,19,00,10,12.00
2010,08,19,00,11,12.00
2010,08,19,00,12,12.00
2010,08,19,00,13,12.00
2010,08,19,00,14,12.00
2010,08,19,00,15,11.90
2010,08,19,00,16,11.90
2010,08,19,00,17,11.90
2010,08,19,00,18,11.90
2010,08,19,00,19,11.90
2010,08,19,00,20,11.90
2010,08,19,00,21,11.90
2010,08,19,00,22,11.90
2010,08,19,00,23,11.90
2010,08,19,00,24,11.90
2010,08,19,00,25,11.90
2010,08,19,00,26,11.90
2010,08,19,00,27,11.90
2010,08,19,00,28,11.90
2010,08,19,00,29,11.90
2010,08,19,00,30,11.90
2010,08,19,00,31,11.90
2010,08,19,00,32,11.80
2010,08,19,00,33,11.80
2010,08,19,00,34,11.80
2010,08,19,00,35,11.80
2010,08,19,00,36,11.80
2010,08,19,00,37,11.80
2010,08,19,00,38,11.80
2010,08,19,00,39,11.80
2010,08,19,00,40,11.80
2010,08,19,00,41,11.70
2010,08,19,00,42,11.70
2010,08,19,00,43,11.70
2010,08,19,00,44,11.70
2010,08,19,00,45,11.70
2010,08,19,00,46,11.70
2010,08,19,00,47,11.70
2010,08,19,00,48,11.70
2010,08,19,00,49,11.70
2010,08,19,00,50,11.70
2010,08,19,00,51,11.70
2010,08,19,00,52,11.60
2010,08,19,00,53,11.60
2010,08,19,00,54,11.60
2010,08,19,00,55,11.60
2010,08,19,00,56,11.60
2010,08,19,00,57,11.60
2010,08,19,00,58,11.60
2010,08,19,00,59,11.60
2010,08,19,01,00,11.60
2010,08,19,01,01,11.60
2010,08,19,01,02,11.60
2010,08,19,01,03,11.60
2010,08,19,01,04,11.60
2010,08,19,01,05,11.60
2010,08,19,01,06,11.60
2010,08,19,01,07,11.50
2010,08,19,01,08,11.50
2010,08,19,01,09,11.50
2010,08,19,01,10,11.50
2010,08,19,01,11,11.50
2010,08,19,01,12,11.50
2010,08,19,01,13,11.50
2010,08,19,01,14,11.50
2010,08,19,01,15,11.40
2010,08,19,01,16,11.40
2010,08,19,01,17,11.40
2010,08,19,01,18,11.40
2010,08,19,01,19,11.40
2010,08,19,01,20,11.40
2010,08,19,01,21,11.40
2010,08,19,01,22,11.40
2010,08,19,01,23,11.40
2010,08,19,01,24,11.40
2010,08,19,01,25,11.40
2010,08,19,01,26,11.40
2010,08,19,01,27,11.40
2010,08,19,01,28,11.40
2010,08,19,01,29,11.40
2010,08,19,01,30,11.40
2010,08,19,01,31,11.30
2010,08,19,01,32,11.30
2010,08,19,01,33,11.30
2010,08,19,01,34,11.30
2010,08,19,01,35,11.30
2010,08,19,01,36,11.30
2010,08,19,01,37,11.30
2010,08,19,01,38,11.30
2010,08,19,01,39,11.30
2010,08,19,01,40,11.30
2010,08,19,01,41,11.30
2010,08,19,01,42,11.20
2010,08,19,01,43,11.20
2010,08,19,01,44,11.20
2010,08,19,01,45,11.20
2010,08,19,01,46,11.20
2010,08,19,01,47,11.20
2010,08,19,01,48,11.20
2010,08,19,01,49,11.20
2010,08,19,01,50,11.20
2010,08,19,01,51,11.20
2010,08,19,01,52,11.20
2010,08,19,01,53,11.10
2010,08,19,01,54,11.10
2010,08,19,01,55,11.10
2010,08,19,01,56,11.10
2010,08,19,01,57,11.10
2010,08,19,01,58,11.10
2010,08,19,01,59,11.10
2010,08,19,02,00,11.10
2010,08,19,02,01,11.10
2010,08,19,02,02,11.10
2010,08,19,02,03,11.10
2010,08,19,02,04,11.10
2010,08,19,02,05,11.10
2010,08,19,02,06,11.10
2010,08,19,02,07,11.10
2010,08,19,02,08,11.10
2010,08,19,02,09,11.10
2010,08,19,02,10,11.10
2010,08,19,02,11,11.10
2010,08,19,02,12,11.10
2010,08,19,02,13,11.10
2010,08,19,02,14,11.10
2010,08,19,02,15,11.00
2010,08,19,02,16,11.00
2010,08,19,02,17,11.00
2010,08,19,02,18,11.00
2010,08,19,02,19,11.00
2010,08,19,02,20,11.00
2010,08,19,02,21,11.00
2010,08,19,02,22,11.00
2010,08,19,02,23,10.90
2010,08,19,02,24,11.00
2010,08,19,02,25,10.90
2010,08,19,02,26,10.90
2010,08,19,02,27,10.90
2010,08,19,02,28,10.90
2010,08,19,02,29,10.90
2010,08,19,02,30,10.90
2010,08,19,02,31,10.90
2010,08,19,02,32,10.90
2010,08,19,02,33,10.90
2010,08,19,02,34,10.90
2010,08,19,02,35,10.90
2010,08,19,02,36,10.90
2010,08,19,02,37,10.90
2010,08,19,02,38,10.90
2010,08,19,02,39,10.80
2010,08,19,02,40,10.90
2010,08,19,02,41,10.80
2010,08,19,02,42,10.80
2010,08,19,02,43,10.80
2010,08,19,02,44,10.80
2010,08,19,02,45,10.80
2010,08,19,02,46,10.80
2010,08,19,02,47,10.80
2010,08,19,02,48,10.80
2010,08,19,02,49,10.80
2010,08,19,02,50,10.80
2010,08,19,02,51,10.80
2010,08,19,02,52,10.80
2010,08,19,02,53,10.80
2010,08,19,02,54,10.80
2010,08,19,02,55,10.80
2010,08,19,02,56,10.80
2010,08,19,02,57,10.80
2010,08,19,02,58,10.80
2010,08,19,02,59,10.80
2010,08,19,03,00,10.80
2010,08,19,03,01,10.80
2010,08,19,03,02,10.80
2010,08,19,03,03,10.80
2010,08,19,03,04,10.80
2010,08,19,03,05,10.80
2010,08,19,03,06,10.80
2010,08,19,03,07,10.80
2010,08,19,03,08,10.80
2010,08,19,03,09,10.80
2010,08,19,03,10,10.80
2010,08,19,03,11,10.80
2010,08,19,03,12,10.80
2010,08,19,03,13,10.80
2010,08,19,03,14,10.80
2010,08,19,03,15,10.80
2010,08,19,03,16,10.80
2010,08,19,03,17,10.80
2010,08,19,03,18,10.80
2010,08,19,03,19,10.80
2010,08,19,03,20,10.90
2010,08,19,03,21,10.90
2010,08,19,03,22,10.90
2010,08,19,03,23,10.90
2010,08,19,03,24,10.90
2010,08,19,03,25,10.90
2010,08,19,03,26,10.90
2010,08,19,03,27,10.90
2010,08,19,03,28,11.00
2010,08,19,03,29,11.00
2010,08,19,03,30,11.00
2010,08,19,03,31,11.10
2010,08,19,03,32,11.10
2010,08,19,03,33,11.10
2010,08,19,03,34,11.10
2010,08,19,03,35,11.10
2010,08,19,03,36,11.10
2010,08,19,03,37,11.10
2010,08,19,03,38,11.10
2010,08,19,03,39,11.10
2010,08,19,03,40,11.20
2010,08,19,03,41,11.20
2010,08,19,03,42,11.20
2010,08,19,03,43,11.20
2010,08,19,03,44,11.20
2010,08,19,03,45,11.20
2010,08,19,03,46,11.30
2010,08,19,03,47,11.30
2010,08,19,03,48,11.30
2010,08,19,03,49,11.30
2010,08,19,03,50,11.30
2010,08,19,03,51,11.30
2010,08,19,03,52,11.30
2010,08,19,03,53,11.40
2010,08,19,03,54,11.40
2010,08,19,03,55,11.40
2010,08,19,03,56,11.40
2010,08,19,03,57,11.40
2010,08,19,03,58,11.50
2010,08,19,03,59,11.50
2010,08,19,04,00,11.50
2010,08,19,04,01,11.60
2010,08,19,04,02,11.60
2010,08,19,04,03,11.60
2010,08,19,04,04,11.60
2010,08,19,04,05,11.70
2010,08,19,04,06,11.70
2010,08,19,04,07,11.70
2010,08,19,04,08,11.70
2010,08,19,04,09,11.70
2010,08,19,04,10,11.80
2010,08,19,04,11,11.80
2010,08,19,04,12,11.80
2010,08,19,04,13,11.80
2010,08,19,04,14,11.80
2010,08,19,04,15,11.90
2010,08,19,04,16,11.90
2010,08,19,04,17,11.90
2010,08,19,04,18,11.90
2010,08,19,04,19,11.90
2010,08,19,04,20,11.90
2010,08,19,04,21,11.90
2010,08,19,04,22,11.90
2010,08,19,04,23,11.90
2010,08,19,04,24,12.00
2010,08,19,04,25,12.00
2010,08,19,04,26,12.00
2010,08,19,04,27,12.10
2010,08,19,04,28,12.10
2010,08,19,04,29,12.10
2010,08,19,04,30,12.10
2010,08,19,04,31,12.10
2010,08,19,04,32,12.10
2010,08,19,04,33,12.10
2010,08,19,04,34,12.10
2010,08,19,04,35,12.20
2010,08,19,04,36,12.20
2010,08,19,04,37,12.20
2010,08,19,04,38,12.20
2010,08,19,04,39,12.20
2010,08,19,04,40,12.20
2010,08,19,04,41,12.20
2010,08,19,04,42,12.20
2010,08,19,04,43,12.30
2010,08,19,04,44,12.30
2010,08,19,04,45,12.30
2010,08,19,04,46,12.30
2010,08,19,04,47,12.30
2010,08,19,04,48,12.30
2010,08,19,04,49,12.30
2010,08,19,04,50,12.30
2010,08,19,04,51,12.40
2010,08,19,04,52,12.40
2010,08,19,04,53,12.40
2010,08,19,04,54,12.40
2010,08,19,04,55,12.40
2010,08,19,04,56,12.40
2010,08,19,04,57,12.40
2010,08,19,04,58,12.40
2010,08,19,04,59,12.40
2010,08,19,05,00,12.40
2010,08,19,05,01,12.40
2010,08,19,05,02,12.50
2010,08,19,05,03,12.50
2010,08,19,05,04,12.50
2010,08,19,05,05,12.50
2010,08,19,05,06,12.50
2010,08,19,05,07,12.50
2010,08,19,05,08,12.50
2010,08,19,05,09,12.50
2010,08,19,05,10,12.60
2010,08,19,05,11,12.60
2010,08,19,05,12,12.60
2010,08,19,05,13,12.60
2010,08,19,05,14,12.60
2010,08,19,05,15,12.60
2010,08,19,05,16,12.60
2010,08,19,05,17,12.60
2010,08,19,05,18,12.60
2010,08,19,05,19,12.60
2010,08,19,05,20,12.60
2010,08,19,05,21,12.70
2010,08,19,05,22,12.70
2010,08,19,05,23,12.70
2010,08,19,05,24,12.70
2010,08,19,05,25,12.70
2010,08,19,05,26,12.70
2010,08,19,05,27,12.70
2010,08,19,05,28,12.70
2010,08,19,05,29,12.70
2010,08,19,05,30,12.70
2010,08,19,05,31,12.80
2010,08,19,05,32,12.80
2010,08,19,05,33,12.80
2010,08,19,05,34,12.80
2010,08,19,05,35,12.80
2010,08,19,05,36,12.80
2010,08,19,05,37,12.80
2010,08,19,05,38,12.80
2010,08,19,05,39,12.80
2010,08,19,05,40,12.80
2010,08,19,05,41,12.80
2010,08,19,05,42,12.80
2010,08,19,05,43,12.90
2010,08,19,05,44,12.90
2010,08,19,05,45,12.90
2010,08,19,05,46,12.90
2010,08,19,05,47,12.90
2010,08,19,05,48,12.90
2010,08,19,05,49,12.90
2010,08,19,05,50,12.90
2010,08,19,05,51,12.90
2010,08,19,05,52,12.90
2010,08,19,05,53,12.90
2010,08,19,05,54,12.90
2010,08,19,05,55,12.90
2010,08,19,05,56,12.90
2010,08,19,05,57,13.00
2010,08,19,05,58,13.00
2010,08,19,05,59,13.00
2010,08,19,06,00,13.00
2010,08,19,06,01,13.00
2010,08,19,06,02,13.00
2010,08,19,06,03,13.00
2010,08,19,06,04,13.00
2010,08,19,06,05,13.10
2010,08,19,06,06,13.10
2010,08,19,06,07,13.10
2010,08,19,06,08,13.10
2010,08,19,06,09,13.10
2010,08,19,06,10,13.10
2010,08,19,06,11,13.10
2010,08,19,06,12,13.10
2010,08,19,06,13,13.10
2010,08,19,06,14,13.10
2010,08,19,06,15,13.10
2010,08,19,06,16,13.10
2010,08,19,06,17,13.10
2010,08,19,06,18,13.10
2010,08,19,06,19,13.10
2010,08,19,06,20,13.10
2010,08,19,06,21,13.20
2010,08,19,06,22,13.20
2010,08,19,06,23,13.20
2010,08,19,06,24,13.20
2010,08,19,06,25,13.20
2010,08,19,06,26,13.20
2010,08,19,06,27,13.20
2010,08,19,06,28,13.20
2010,08,19,06,29,13.20
2010,08,19,06,30,13.20
2010,08,19,06,31,13.20
2010,08,19,06,32,13.20
2010,08,19,06,33,13.20
2010,08,19,06,34,13.20
2010,08,19,06,35,13.20
2010,08,19,06,36,13.20
2010,08,19,06,37,13.20
2010,08,19,06,38,13.20
2010,08,19,06,39,13.30
2010,08,19,06,40,13.30
2010,08,19,06,41,13.30
2010,08,19,06,42,13.30
2010,08,19,06,43,13.30
2010,08,19,06,44,13.30
2010,08,19,06,45,13.30
2010,08,19,06,46,13.30
2010,08,19,06,47,13.30
2010,08,19,06,48,13.30
2010,08,19,06,49,13.30
2010,08,19,06,50,13.30
2010,08,19,06,51,13.30
2010,08,19,06,52,13.40
2010,08,19,06,53,13.40
2010,08,19,06,54,13.40
2010,08,19,06,55,13.40
2010,08,19,06,56,13.40
2010,08,19,06,57,13.40
2010,08,19,06,58,13.40
2010,08,19,06,59,13.40
2010,08,19,07,00,13.40
2010,08,19,07,01,13.40
2010,08,19,07,02,13.40
2010,08,19,07,03,13.50
2010,08,19,07,04,13.50
2010,08,19,07,05,13.50
2010,08,19,07,06,13.50
2010,08,19,07,07,13.50
2010,08,19,07,08,13.50
2010,08,19,07,09,13.50
2010,08,19,07,10,13.50
2010,08,19,07,11,13.50
2010,08,19,07,12,13.60
2010,08,19,07,13,13.60
2010,08,19,07,14,13.60
2010,08,19,07,15,13.60
2010,08,19,07,16,13.60
2010,08,19,07,17,13.60
2010,08,19,07,18,13.60
2010,08,19,07,19,13.60
2010,08,19,07,20,13.60
2010,08,19,07,21,13.60
2010,08,19,07,22,13.60
2010,08,19,07,23,13.60
2010,08,19,07,24,13.60
2010,08,19,07,25,13.60
2010,08,19,07,26,13.70
2010,08,19,07,27,13.70
2010,08,19,07,28,13.70
2010,08,19,07,29,13.70
2010,08,19,07,30,13.70
2010,08,19,07,31,13.70
2010,08,19,07,32,13.70
2010,08,19,07,33,13.70
2010,08,19,07,34,13.70
2010,08,19,07,35,13.70
2010,08,19,07,36,13.70
2010,08,19,07,37,13.70
2010,08,19,07,38,13.80
2010,08,19,07,39,13.80
2010,08,19,07,40,13.80
2010,08,19,07,41,13.80
2010,08,19,07,42,13.80
2010,08,19,07,43,13.80
2010,08,19,07,44,13.80
2010,08,19,07,45,13.80
2010,08,19,07,46,13.80
2010,08,19,07,47,13.80
2010,08,19,07,48,13.80
2010,08,19,07,49,13.80
2010,08,19,07,50,13.80
2010,08,19,07,51,13.90
2010,08,19,07,52,13.90
2010,08,19,07,53,13.90
2010,08,19,07,54,13.90
2010,08,19,07,55,13.90
2010,08,19,07,56,13.90
2010,08,19,07,57,13.90
2010,08,19,07,58,13.90
2010,08,19,07,59,13.90
2010,08,19,08,00,13.90
2010,08,19,08,01,13.90
2010,08,19,08,02,14.00
2010,08,19,08,03,14.00
2010,08,19,08,04,14.00
2010,08,19,08,05,14.00
2010,08,19,08,06,14.00
2010,08,19,08,07,14.10
2010,08,19,08,08,14.10
2010,08,19,08,09,14.10
2010,08,19,08,10,14.10
2010,08,19,08,11,14.10
2010,08,19,08,12,14.20
2010,08,19,08,13,14.20
2010,08,19,08,14,14.20
2010,08,19,08,15,14.20
2010,08,19,08,16,14.20
2010,08,19,08,17,14.30
2010,08,19,08,18,14.30
2010,08,19,08,19,14.30
2010,08,19,08,20,14.30
2010,08,19,08,21,14.30
2010,08,19,08,22,14.40
2010,08,19,08,23,14.40
2010,08,19,08,24,14.40
2010,08,19,08,25,14.50
2010,08,19,08,26,14.50
2010,08,19,08,27,14.60
2010,08,19,08,28,14.60
2010,08,19,08,29,14.70
2010,08,19,08,30,14.70
2010,08,19,08,31,14.80
2010,08,19,08,32,14.80
2010,08,19,08,33,14.90
2010,08,19,08,34,14.90
2010,08,19,08,35,15.00
2010,08,19,08,36,15.00
2010,08,19,08,37,15.00
2010,08,19,08,38,15.00
2010,08,19,08,39,15.00
2010,08,19,08,40,15.00
2010,08,19,08,41,15.00
2010,08,19,08,42,15.10
2010,08,19,08,43,15.10
2010,08,19,08,44,15.20
2010,08,19,08,45,15.20
2010,08,19,08,46,15.20
2010,08,19,08,47,15.20
2010,08,19,08,48,15.30
2010,08,19,08,49,15.30
2010,08,19,08,50,15.30
2010,08,19,08,51,15.30
2010,08,19,08,52,15.30
2010,08,19,08,53,15.30
2010,08,19,08,54,15.30
2010,08,19,08,55,15.30
2010,08,19,08,56,15.40
2010,08,19,08,57,15.40
2010,08,19,08,58,15.40
2010,08,19,08,59,15.40
2010,08,19,09,00,15.40
2010,08,19,09,01,15.50
2010,08,19,09,02,15.50
2010,08,19,09,03,15.50
2010,08,19,09,04,15.60
2010,08,19,09,05,15.60
2010,08,19,09,06,15.60
2010,08,19,09,07,15.60
2010,08,19,09,08,15.60
2010,08,19,09,09,15.70
2010,08,19,09,10,15.70
2010,08,19,09,11,15.70
2010,08,19,09,12,15.80
2010,08,19,09,13,15.80
2010,08,19,09,14,15.80
2010,08,19,09,15,15.80
2010,08,19,09,16,15.80
2010,08,19,09,17,15.80
2010,08,19,09,18,15.80
2010,08,19,09,19,15.80
2010,08,19,09,20,15.80
2010,08,19,09,21,15.80
2010,08,19,09,22,15.90
2010,08,19,09,23,15.90
2010,08,19,09,24,15.90
2010,08,19,09,25,15.90
2010,08,19,09,26,15.90
2010,08,19,09,27,15.90
2010,08,19,09,28,15.90
2010,08,19,09,29,15.90
2010,08,19,09,30,15.90
2010,08,19,09,31,15.90
2010,08,19,09,32,15.90
2010,08,19,09,33,16.00
2010,08,19,09,34,16.00
2010,08,19,09,35,16.00
2010,08,19,09,36,16.00
2010,08,19,09,37,16.00
2010,08,19,09,38,16.00
2010,08,19,09,39,16.00
2010,08,19,09,40,16.00
2010,08,19,09,41,16.00
2010,08,19,09,42,16.10
2010,08,19,09,43,16.10
2010,08,19,09,44,16.10
2010,08,19,09,45,16.10
2010,08,19,09,46,16.10
2010,08,19,09,47,16.10
2010,08,19,09,48,16.10
2010,08,19,09,49,16.10
2010,08,19,09,50,16.10
2010,08,19,09,51,16.10
2010,08,19,09,52,16.10
2010,08,19,09,53,16.10
2010,08,19,09,54,16.10
2010,08,19,09,55,16.00
2010,08,19,09,56,16.00
2010,08,19,09,57,16.00
2010,08,19,09,58,16.10
2010,08,19,09,59,16.10
2010,08,19,10,00,16.10
2010,08,19,10,01,16.10
2010,08,19,10,02,16.10
2010,08,19,10,03,16.10
2010,08,19,10,04,16.10
2010,08,19,10,05,16.10
2010,08,19,10,06,16.10
2010,08,19,10,07,16.10
2010,08,19,10,08,16.10
2010,08,19,10,09,16.10
2010,08,19,10,10,16.10
2010,08,19,10,11,16.10
2010,08,19,10,12,16.10
2010,08,19,10,13,16.10
2010,08,19,10,14,16.10
2010,08,19,10,15,16.10
2010,08,19,10,16,16.10
2010,08,19,10,17,16.10
2010,08,19,10,18,16.20
2010,08,19,10,19,16.20
2010,08,19,10,20,16.20
2010,08,19,10,21,16.20
2010,08,19,10,22,16.10
2010,08,19,10,23,16.10
2010,08,19,10,24,16.10
2010,08,19,10,25,16.10
2010,08,19,10,26,16.10
2010,08,19,10,27,16.10
2010,08,19,10,28,16.10
2010,08,19,10,29,16.10
2010,08,19,10,30,16.10
2010,08,19,10,31,16.10
2010,08,19,10,32,16.10
2010,08,19,10,33,16.10
2010,08,19,10,34,16.10
2010,08,19,10,35,16.20
2010,08,19,10,36,16.20
2010,08,19,10,37,16.20
2010,08,19,10,38,16.20
2010,08,19,10,39,16.20
2010,08,19,10,40,16.30
2010,08,19,10,41,16.30
2010,08,19,10,42,16.30
2010,08,19,10,43,16.30
2010,08,19,10,44,16.40
2010,08,19,10,45,16.40
2010,08,19,10,46,16.40
2010,08,19,10,47,16.50
2010,08,19,10,48,16.50
2010,08,19,10,49,16.50
2010,08,19,10,50,16.50
2010,08,19,10,51,16.60
2010,08,19,10,52,16.60
2010,08,19,10,53,16.60
2010,08,19,10,54,16.60
2010,08,19,10,55,16.60
2010,08,19,10,56,16.60
2010,08,19,10,57,16.60
2010,08,19,10,58,16.70
2010,08,19,10,59,16.70
2010,08,19,11,00,16.70
2010,08,19,11,01,16.70
2010,08,19,11,02,16.80
2010,08,19,11,03,16.80
2010,08,19,11,04,16.80
2010,08,19,11,05,16.90
2010,08,19,11,06,16.90
2010,08,19,11,07,16.90
2010,08,19,11,08,16.90
2010,08,19,11,09,16.90
2010,08,19,11,10,16.90
2010,08,19,11,11,16.90
2010,08,19,11,12,17.00
2010,08,19,11,13,17.00
2010,08,19,11,14,17.00
2010,08,19,11,15,17.10
2010,08,19,11,16,17.10
2010,08,19,11,17,17.10
2010,08,19,11,18,17.10
2010,08,19,11,19,17.10
2010,08,19,11,20,17.10
2010,08,19,11,21,17.10
2010,08,19,11,22,17.10
2010,08,19,11,23,17.10
2010,08,19,11,24,17.20
2010,08,19,11,25,17.20
2010,08,19,11,26,17.20
2010,08,19,11,27,17.20
2010,08,19,11,28,17.20
2010,08,19,11,29,17.20
2010,08,19,11,30,17.10
2010,08,19,11,31,17.10
2010,08,19,11,32,17.10
2010,08,19,11,33,17.20
2010,08,19,11,34,17.20
2010,08,19,11,35,17.20
2010,08,19,11,36,17.20
2010,08,19,11,37,17.20
2010,08,19,11,38,17.20
2010,08,19,11,39,17.20
2010,08,19,11,40,17.20
2010,08,19,11,41,17.10
2010,08,19,11,42,17.10
2010,08,19,11,43,17.10
2010,08,19,11,44,17.10
2010,08,19,11,45,17.10
2010,08,19,11,46,17.10
2010,08,19,11,47,17.20
2010,08,19,11,48,17.20
2010,08,19,11,49,17.20
2010,08,19,11,50,17.20
2010,08,19,11,51,17.20
2010,08,19,11,52,17.20
2010,08,19,11,53,17.20
2010,08,19,11,54,17.20
2010,08,19,11,55,17.20
2010,08,19,11,56,17.20
2010,08,19,11,57,17.20
2010,08,19,11,58,17.20
2010,08,19,11,59,17.20
2010,08,19,12,00,17.20
2010,08,19,12,01,17.20
2010,08,19,12,02,17.20
2010,08,19,12,03,17.20
2010,08,19,12,04,17.20
2010,08,19,12,05,17.20
2010,08,19,12,06,17.20
2010,08,19,12,07,17.20
2010,08,19,12,08,17.30
2010,08,19,12,09,17.30
2010,08,19,12,10,17.30
2010,08,19,12,11,17.30
2010,08,19,12,12,17.30
2010,08,19,12,13,17.30
2010,08,19,12,14,17.30
2010,08,19,12,15,17.30
2010,08,19,12,16,17.30
2010,08,19,12,17,17.30
2010,08,19,12,18,17.20
2010,08,19,12,19,17.20
2010,08,19,12,20,17.20
2010,08,19,12,21,17.20
2010,08,19,12,22,17.20
2010,08,19,12,23,17.10
2010,08,19,12,24,17.10
2010,08,19,12,25,17.10
2010,08,19,12,26,17.10
2010,08,19,12,27,17.10
2010,08,19,12,28,17.10
2010,08,19,12,29,17.00
2010,08,19,12,30,17.00
2010,08,19,12,31,17.00
2010,08,19,12,32,17.00
2010,08,19,12,33,17.00
2010,08,19,12,34,17.00
2010,08,19,12,35,17.00
2010,08,19,12,36,17.00
2010,08,19,12,37,17.00
2010,08,19,12,38,17.00
2010,08,19,12,39,17.00
2010,08,19,12,40,17.10
2010,08,19,12,41,17.10
2010,08,19,12,42,17.10
2010,08,19,12,43,17.10
2010,08,19,12,44,17.10
2010,08,19,12,45,17.20
2010,08,19,12,46,17.20
2010,08,19,12,47,17.20
2010,08,19,12,48,17.20
2010,08,19,12,49,17.20
2010,08,19,12,50,17.20
2010,08,19,12,51,17.30
2010,08,19,12,52,17.30
2010,08,19,12,53,17.30
2010,08,19,12,54,17.30
2010,08,19,12,55,17.30
2010,08,19,12,56,17.40
2010,08,19,12,57,17.40
2010,08,19,12,58,17.40
2010,08,19,12,59,17.40
2010,08,19,13,00,17.50
2010,08,19,13,01,17.50
2010,08,19,13,02,17.50
2010,08,19,13,03,17.50
2010,08,19,13,04,17.50
2010,08,19,13,05,17.50
2010,08,19,13,06,17.50
2010,08,19,13,07,17.50
2010,08,19,13,08,17.50
2010,08,19,13,09,17.50
2010,08,19,13,10,17.50
2010,08,19,13,11,17.50
2010,08,19,13,12,17.50
2010,08,19,13,13,17.60
2010,08,19,13,14,17.60
2010,08,19,13,15,17.60
2010,08,19,13,16,17.60
2010,08,19,13,17,17.60
2010,08,19,13,18,17.60
2010,08,19,13,19,17.60
2010,08,19,13,20,17.60
2010,08,19,13,21,17.60
2010,08,19,13,22,17.60
2010,08,19,13,23,17.60
2010,08,19,13,24,17.60
2010,08,19,13,25,17.70
2010,08,19,13,26,17.70
2010,08,19,13,27,17.70
2010,08,19,13,28,17.80
2010,08,19,13,29,17.80
2010,08,19,13,30,17.80
2010,08,19,13,31,17.80
2010,08,19,13,32,17.80
2010,08,19,13,33,17.80
2010,08,19,13,34,17.80
2010,08,19,13,35,17.80
2010,08,19,13,36,17.90
2010,08,19,13,37,17.90
2010,08,19,13,38,18.10
2010,08,19,13,39,18.20
2010,08,19,13,40,18.30
2010,08,19,13,41,18.50
2010,08,19,13,42,18.60
2010,08,19,13,43,18.80
2010,08,19,13,44,18.90
2010,08,19,13,45,19.10
2010,08,19,13,46,19.30
2010,08,19,13,47,19.40
2010,08,19,13,48,19.60
2010,08,19,13,49,19.70
2010,08,19,13,50,19.80
2010,08,19,13,51,19.80
2010,08,19,13,52,19.80
2010,08,19,13,53,19.70
2010,08,19,13,54,19.70
2010,08,19,13,55,19.70
2010,08,19,13,56,19.70
2010,08,19,13,57,19.70
2010,08,19,13,58,19.70
2010,08,19,13,59,19.70
2010,08,19,14,00,19.60
2010,08,19,14,01,19.60
2010,08,19,14,02,19.60
2010,08,19,14,03,19.60
2010,08,19,14,04,19.60
2010,08,19,14,05,19.50
2010,08,19,14,06,19.50
2010,08,19,14,07,19.50
2010,08,19,14,08,19.50
2010,08,19,14,09,19.50
2010,08,19,14,10,19.50
2010,08,19,14,11,19.60
2010,08,19,14,12,19.60
2010,08,19,14,13,19.60
2010,08,19,14,14,19.50
2010,08,19,14,15,19.50
2010,08,19,14,16,19.40
2010,08,19,14,17,19.50
2010,08,19,14,18,19.50
2010,08,19,14,19,19.60
2010,08,19,14,20,19.60
2010,08,19,14,21,19.70
2010,08,19,14,22,19.70
2010,08,19,14,23,19.70
2010,08,19,14,24,19.70
2010,08,19,14,25,19.70
2010,08,19,14,26,19.70
2010,08,19,14,27,19.70
2010,08,19,14,28,19.80
2010,08,19,14,29,19.80
2010,08,19,14,30,19.90
2010,08,19,14,31,19.90
2010,08,19,14,32,19.90
2010,08,19,14,33,19.90
2010,08,19,14,34,19.80
2010,08,19,14,35,19.90
2010,08,19,14,36,19.80
2010,08,19,14,37,19.90
2010,08,19,14,38,19.90
2010,08,19,14,39,19.90
2010,08,19,14,40,20.00
2010,08,19,14,41,20.00
2010,08,19,14,42,20.10
2010,08,19,14,43,20.10
2010,08,19,14,44,20.10
2010,08,19,14,45,20.10
2010,08,19,14,46,20.10
2010,08,19,14,47,20.10
2010,08,19,14,48,20.10
2010,08,19,14,49,20.10
2010,08,19,14,50,20.10
2010,08,19,14,51,20.20
2010,08,19,14,52,20.10
2010,08,19,14,53,20.10
2010,08,19,14,54,20.10
2010,08,19,14,55,20.10
2010,08,19,14,56,20.00
2010,08,19,14,57,19.90
2010,08,19,14,58,19.80
2010,08,19,14,59,19.80
2010,08,19,15,00,19.80
2010,08,19,15,01,19.70
2010,08,19,15,02,19.70
2010,08,19,15,03,19.70
2010,08,19,15,04,19.70
2010,08,19,15,05,19.70
2010,08,19,15,06,19.70
2010,08,19,15,07,19.70
2010,08,19,15,08,19.70
2010,08,19,15,09,19.70
2010,08,19,15,10,19.70
2010,08,19,15,11,19.80
2010,08,19,15,12,19.80
2010,08,19,15,13,19.80
2010,08,19,15,14,19.70
2010,08,19,15,15,19.70
2010,08,19,15,16,19.60
2010,08,19,15,17,19.60
2010,08,19,15,18,19.60
2010,08,19,15,19,19.50
2010,08,19,15,20,19.40
2010,08,19,15,21,19.40
2010,08,19,15,22,19.40
2010,08,19,15,23,19.30
2010,08,19,15,24,19.30
2010,08,19,15,25,19.30
2010,08,19,15,26,19.30
2010,08,19,15,27,19.30
2010,08,19,15,28,19.30
2010,08,19,15,29,19.30
2010,08,19,15,30,19.40
2010,08,19,15,31,19.40
2010,08,19,15,32,19.40
2010,08,19,15,33,19.50
2010,08,19,15,34,19.50
2010,08,19,15,35,19.50
2010,08,19,15,36,19.40
2010,08,19,15,37,19.40
2010,08,19,15,38,19.40
2010,08,19,15,39,19.40
2010,08,19,15,40,19.40
2010,08,19,15,41,19.40
2010,08,19,15,42,19.30
2010,08,19,15,43,19.30
2010,08,19,15,44,19.30
2010,08,19,15,45,19.30
2010,08,19,15,46,19.20
2010,08,19,15,47,19.20
2010,08,19,15,48,19.20
2010,08,19,15,49,19.20
2010,08,19,15,50,19.20
2010,08,19,15,51,19.20
2010,08,19,15,52,19.10
2010,08,19,15,53,19.10
2010,08,19,15,54,19.10
2010,08,19,15,55,19.00
2010,08,19,15,56,18.90
2010,08,19,15,57,18.90
2010,08,19,15,58,18.90
2010,08,19,15,59,18.90
2010,08,19,16,00,18.90
2010,08,19,16,01,18.90
2010,08,19,16,02,18.90
2010,08,19,16,03,18.90
2010,08,19,16,04,18.90
2010,08,19,16,05,18.90
2010,08,19,16,06,18.80
2010,08,19,16,07,18.80
2010,08,19,16,08,18.80
2010,08,19,16,09,18.80
2010,08,19,16,10,18.80
2010,08,19,16,11,18.80
2010,08,19,16,12,18.80
2010,08,19,16,13,18.80
2010,08,19,16,14,18.80
2010,08,19,16,15,18.80
2010,08,19,16,16,18.80
2010,08,19,16,17,18.80
2010,08,19,16,18,18.80
2010,08,19,16,19,18.80
2010,08,19,16,20,18.70
2010,08,19,16,21,18.70
2010,08,19,16,22,18.70
2010,08,19,16,23,18.70
2010,08,19,16,24,18.70
2010,08,19,16,25,18.70
2010,08,19,16,26,18.70
2010,08,19,16,27,18.60
2010,08,19,16,28,18.60
2010,08,19,16,29,18.60
2010,08,19,16,30,18.50
2010,08,19,16,31,18.50
2010,08,19,16,32,18.50
2010,08,19,16,33,18.50
2010,08,19,16,34,18.50
2010,08,19,16,35,18.50
2010,08,19,16,36,18.50
2010,08,19,16,37,18.50
2010,08,19,16,38,18.50
2010,08,19,16,39,18.50
2010,08,19,16,40,18.50
2010,08,19,16,41,18.50
2010,08,19,16,42,18.50
2010,08,19,16,43,18.50
2010,08,19,16,44,18.50
2010,08,19,16,45,18.50
2010,08,19,16,46,18.50
2010,08,19,16,47,18.50
2010,08,19,16,48,18.50
2010,08,19,16,49,18.50
2010,08,19,16,50,18.50
2010,08,19,16,51,18.50
2010,08,19,16,52,18.50
2010,08,19,16,53,18.50
2010,08,19,16,54,18.50
2010,08,19,16,55,18.40
2010,08,19,16,56,18.40
2010,08,19,16,57,18.40
2010,08,19,16,58,18.40
2010,08,19,16,59,18.40
2010,08,19,17,00,18.40
2010,08,19,17,01,18.40
2010,08,19,17,02,18.40
2010,08,19,17,03,18.40
2010,08,19,17,04,18.40
2010,08,19,17,05,18.40
2010,08,19,17,06,18.40
2010,08,19,17,07,18.40
2010,08,19,17,08,18.40
2010,08,19,17,09,18.50
2010,08,19,17,10,18.50
2010,08,19,17,11,18.50
2010,08,19,17,12,18.50
2010,08,19,17,13,18.50
2010,08,19,17,14,18.50
2010,08,19,17,15,18.50
2010,08,19,17,16,18.50
2010,08,19,17,17,18.50
2010,08,19,17,18,18.50
2010,08,19,17,19,18.60